Theta_e
337 335 333 336 337 336 338 338 338 337 334 334 335 334 331 330 333 331 327 331 332 333 335 337 338 340 342 342 342 342 342 342 342 342 341 345 348 348 348 348 347 348 349 347 346 345 344 345 346 346 347 347 347 348 348 347 347 349 349 347 347 347 345 345 346 346 346 346 346 346 345 344 345 345 347 347 347 348 348 347 349 351 350 349 349
335 333 333 336 337 336 337 337 338 335 331 332 331 331 328 328 331 328 327 332 333 333 337 340 341 342 343 343 343 344 343 343 344 344 344 346 348 348 348 348 347 348 348 346 345 346 347 347 347 347 347 346 347 347 347 347 347 347 347 346 346 346 346 347 348 348 347 346 345 346 348 347 346 346 345 347 348 348 347 346 349 352 351 350 348
334 335 336 338 337 336 336 336 336 333 330 329 328 328 327 327 328 326 328 332 332 335 338 341 342 343 343 343 343 343 344 344 344 345 345 346 347 347 347 347 347 347 346 346 346 346 345 345 345 346 346 346 346 346 346 346 346 346 346 346 346 346 347 348 348 349 348 347 345 346 348 348 347 346 346 347 348 349 348 347 348 351 351 351 349
336 337 337 337 337 335 335 334 333 331 331 330 328 327 327 326 324 323 329 332 332 337 339 341 343 343 343 343 343 343 343 344 344 344 345 345 345 345 345 345 345 346 347 346 345 343 343 344 344 345 346 346 346 345 346 347 347 347 347 347 347 347 348 348 348 349 349 348 348 348 348 348 348 348 348 348 347 347 348 348 349 350 351 351 351
338 338 337 336 336 334 333 332 330 329 329 329 328 327 325 321 319 324 330 331 332 337 339 340 342 342 342 342 342 343 343 344 344 344 345 344 344 345 345 345 344 345 345 344 344 344 343 344 344 345 345 345 345 344 345 346 346 346 347 348 348 348 348 348 349 348 348 348 348 349 350 349 348 348 349 348 347 346 347 349 349 350 351 350 351
337 336 335 334 334 332 330 328 327 328 328 327 327 324 320 318 322 328 330 329 330 333 336 338 341 342 342 342 343 343 343 343 343 343 343 344 344 344 344 344 344 344 343 342 344 344 343 344 344 345 344 344 345 344 345 345 345 345 345 347 347 348 349 348 348 348 348 348 349 349 350 350 350 349 349 349 349 347 346 348 349 349 350 350 350
335 334 333 332 331 330 329 326 326 326 324 324 323 320 319 323 327 329 328 328 329 330 331 334 339 342 343 342 343 343 343 343 342 342 342 342 342 342 343 343 343 343 343 343 343 343 343 343 344 344 344 344 344 344 344 344 345 345 346 346 346 347 348 348 348 348 348 348 349 350 349 350 349 350 350 350 350 349 346 346 348 349 350 350 349
333 333 332 330 329 329 328 326 324 322 320 320 321 321 324 327 329 329 326 325 326 327 328 331 337 341 342 342 342 342 341 341 341 340 341 341 341 341 342 343 342 343 343 342 343 343 343 343 343 344 344 343 344 343 342 342 343 344 346 346 346 346 347 348 348 348 348 349 349 349 349 349 349 350 350 350 350 350 348 346 347 348 349 349 349
333 332 331 329 328 328 328 325 324 323 321 321 322 325 326 328 329 327 325 323 323 323 325 331 336 339 341 341 342 341 340 340 340 340 340 340 340 340 341 342 342 342 342 342 342 343 343 343 343 343 342 340 341 340 338 337 338 342 345 346 346 346 347 348 348 348 348 349 349 349 349 349 348 349 350 350 350 350 350 347 347 347 349 349 349
332 330 329 327 326 327 326 324 326 326 323 322 324 326 327 329 328 326 326 324 320 320 324 331 335 337 339 340 340 341 340 339 340 340 339 338 338 339 340 341 342 342 341 341 342 342 343 342 342 343 340 336 334 332 332 333 332 335 341 345 345 345 346 347 346 347 348 348 348 349 349 349 349 349 349 350 351 351 351 349 347 347 348 349 349
330 329 328 326 324 324 324 325 326 325 324 324 325 327 328 329 328 325 326 324 321 321 324 330 335 336 338 339 339 340 339 339 339 337 333 330 330 334 337 339 342 342 341 341 341 341 341 341 340 339 335 330 326 325 327 330 330 329 332 339 343 344 344 345 346 346 347 348 348 348 348 349 349 349 349 350 350 350 350 350 348 348 348 349 350
328 328 327 324 323 323 325 326 326 325 325 325 326 326 328 329 327 326 327 325 324 322 322 329 334 333 335 337 339 339 337 336 335 331 326 324 325 329 335 339 341 342 341 340 340 340 340 340 339 336 332 330 328 325 324 326 330 330 327 329 335 340 342 342 343 345 346 347 348 348 348 349 349 349 349 350 350 349 350 350 349 349 348 348 349
326 327 324 323 324 324 324 324 324 325 325 325 325 325 327 329 327 327 327 326 325 323 322 328 333 331 331 332 333 333 332 332 329 327 325 324 326 328 332 337 339 340 339 339 339 339 339 339 339 337 336 335 332 329 325 325 330 333 330 325 327 334 338 338 340 341 344 346 347 347 348 348 348 349 349 350 351 350 349 350 348 349 349 348 349
324 324 322 322 324 323 323 323 324 324 324 324 325 325 326 328 328 327 327 325 325 324 324 327 331 332 331 329 329 326 324 326 327 327 326 325 329 330 329 331 333 335 337 338 338 338 338 338 338 336 334 332 330 329 328 328 331 334 334 329 324 328 334 337 336 336 340 343 344 345 347 348 348 349 350 350 351 351 349 349 348 348 349 349 349
322 323 322 322 322 322 323 324 324 324 323 323 323 323 325 327 327 327 326 325 324 324 324 326 327 329 331 333 334 332 328 325 324 326 327 325 330 333 330 329 331 334 336 338 338 337 337 337 336 335 332 330 329 329 329 331 333 334 336 333 327 325 329 334 335 334 335 337 341 344 345 347 348 349 351 350 351 352 351 350 349 349 349 349 348
323 323 322 322 322 322 323 322 323 323 322 322 323 322 323 325 326 326 325 324 324 323 323 325 325 327 332 333 332 336 336 329 323 324 327 325 327 332 335 333 333 334 336 338 338 337 336 335 335 334 333 332 331 330 330 330 330 331 335 335 330 325 327 333 335 333 330 329 334 340 343 346 348 348 350 351 352 352 351 350 350 350 349 348 348
324 323 322 322 322 322 321 320 321 320 321 322 322 321 321 323 324 324 324 324 323 322 322 323 324 326 329 330 330 334 336 329 323 322 325 325 326 330 335 335 334 335 337 337 337 337 335 334 333 332 331 331 330 329 329 328 326 327 332 335 332 326 325 333 335 332 328 324 326 333 340 344 346 348 348 350 352 351 351 351 350 350 349 348 349
323 322 323 322 321 321 320 321 321 319 320 322 322 321 320 321 322 323 323 322 322 322 321 322 323 324 325 326 327 329 331 328 327 328 327 324 324 327 333 336 335 335 336 337 337 336 334 333 332 331 330 330 329 328 328 328 327 326 330 333 332 325 325 333 335 333 330 326 322 326 336 343 345 347 347 347 350 351 350 350 350 349 349 349 350
322 322 323 322 322 322 321 322 322 321 320 321 322 321 320 320 321 322 321 320 320 320 320 320 321 322 323 323 322 323 325 326 329 333 333 329 324 323 329 334 335 335 335 335 335 335 333 333 332 331 331 331 331 329 329 329 329 327 328 330 329 326 327 332 334 333 333 330 322 320 330 340 344 345 347 347 348 350 349 350 350 349 348 348 348
322 322 322 322 322 322 323 322 322 322 320 320 321 321 320 319 319 320 320 319 318 318 318 319 318 318 320 321 321 322 323 324 324 327 331 332 328 323 323 328 333 335 335 333 333 333 331 330 328 327 328 330 330 328 328 330 329 327 328 328 326 326 328 332 332 333 334 333 328 321 322 334 342 344 345 347 347 348 349 348 349 348 347 348 347
323 323 322 322 321 321 322 323 323 322 321 320 321 321 322 321 319 318 318 318 317 317 317 317 317 316 317 318 319 321 322 322 321 321 325 329 329 326 323 324 328 333 334 332 331 330 327 326 325 323 324 326 325 325 326 328 328 326 326 327 324 323 327 330 331 332 333 333 332 325 318 325 337 342 343 346 347 347 348 348 347 347 348 348 348
324 324 323 323 322 321 321 322 322 322 321 321 320 321 321 321 320 319 317 317 317 316 315 315 316 315 315 316 319 321 321 321 321 321 322 324 325 325 322 323 325 328 332 334 332 329 326 325 324 322 322 324 324 325 327 328 328 326 324 324 324 323 325 328 329 331 332 333 333 329 322 319 329 340 341 342 346 346 346 348 347 347 348 348 348
324 324 323 323 322 320 320 321 321 321 322 321 321 321 320 320 320 320 318 317 316 315 314 315 315 314 314 316 317 318 319 321 321 321 321 321 324 323 321 322 324 325 331 334 331 329 327 324 321 320 321 323 322 324 327 325 326 326 321 320 323 324 325 326 328 329 331 332 333 331 328 319 320 335 341 340 342 345 345 347 347 347 347 347 347
323 323 323 324 322 320 322 323 321 321 321 321 321 320 320 320 320 320 319 318 317 315 314 314 315 315 314 316 317 316 317 319 320 321 321 321 323 322 320 323 325 324 327 329 327 325 324 321 319 319 320 321 319 320 322 320 323 325 320 319 323 323 323 325 327 329 330 331 331 331 331 324 316 327 340 339 338 340 342 344 346 346 346 347 348
322 322 321 322 322 322 323 322 320 320 321 320 320 319 319 320 321 320 319 318 318 316 315 315 315 316 316 316 317 318 317 317 319 321 321 321 321 320 320 323 325 324 322 323 323 321 320 320 319 319 319 319 318 318 319 318 322 323 319 319 322 322 322 323 325 328 329 329 329 330 332 329 321 323 335 339 337 337 338 339 342 345 346 347 347
323 322 320 319 321 323 321 318 318 319 320 320 319 319 320 321 321 320 319 318 318 317 316 315 315 316 317 317 317 318 318 318 318 320 320 320 321 320 320 322 324 322 320 320 320 319 319 319 318 319 319 318 318 318 318 319 322 321 319 319 321 321 323 324 324 326 329 329 329 330 331 331 329 328 332 337 338 338 338 336 337 340 344 347 348
322 321 319 318 321 322 320 317 317 318 318 319 319 320 320 321 321 320 320 319 319 318 317 316 315 315 316 318 318 318 318 318 317 318 319 320 321 320 320 324 326 323 321 320 319 318 318 318 318 318 318 318 317 318 318 320 321 319 318 319 320 320 323 324 323 324 327 328 329 330 330 330 330 331 332 335 337 338 339 337 334 335 338 342 345
321 320 319 319 320 321 319 319 320 319 319 319 319 320 321 321 320 320 320 321 319 318 318 318 316 314 315 317 318 318 319 319 318 317 317 319 320 319 319 322 325 326 324 322 320 318 317 317 317 318 318 318 318 318 319 319 319 318 318 319 319 319 321 323 323 323 324 325 326 328 329 329 329 330 332 335 336 337 338 337 333 332 334 336 339
321 320 320 320 320 319 318 321 322 321 320 320 319 320 320 319 319 319 320 320 319 318 319 319 317 316 316 317 317 318 318 319 319 318 318 318 319 319 319 320 322 326 326 324 321 319 317 316 317 317 317 318 318 318 318 318 318 318 317 318 318 318 318 321 322 322 322 323 325 327 328 328 327 329 331 334 336 337 338 337 332 330 332 333 335
321 320 320 319 319 318 318 320 321 320 320 320 319 319 319 318 318 318 319 320 320 318 318 317 316 315 316 317 317 317 317 318 318 318 317 317 318 319 319 319 319 321 321 321 321 318 316 317 317 317 317 318 317 317 317 317 317 318 317 317 317 317 317 319 321 321 322 323 325 327 328 328 328 329 331 334 335 336 338 337 332 330 331 331 333
322 320 319 318 318 318 318 319 319 319 320 320 320 319 319 320 319 319 320 320 320 319 318 317 315 313 314 315 317 317 316 317 318 318 317 318 318 318 318 318 318 318 317 318 319 318 316 317 317 317 317 317 316 316 317 318 317 317 316 316 316 316 316 317 318 319 321 323 325 327 329 329 329 330 331 334 335 335 337 337 333 331 332 330 330
322 321 319 319 319 319 318 318 318 319 319 320 320 320 320 321 321 320 320 320 320 320 320 318 316 316 314 313 315 317 316 317 319 319 318 319 319 318 318 318 318 318 317 316 318 317 316 317 317 317 317 317 315 315 316 317 317 316 316 316 315 314 314 316 317 318 320 322 325 327 328 330 331 330 331 332 333 334 336 337 334 333 333 332 330
321 321 320 320 320 319 320 320 319 318 319 319 320 321 321 321 321 321 320 320 320 320 320 319 318 317 316 313 313 316 317 317 320 321 320 319 319 318 318 317 317 317 316 316 316 316 316 317 317 316 317 317 314 313 315 316 316 314 313 312 310 310 314 316 317 317 318 322 324 325 326 327 329 329 329 331 332 333 335 336 335 335 334 333 332
321 320 320 321 321 320 321 322 319 318 319 319 320 320 320 320 321 321 320 320 320 320 319 319 318 317 317 314 311 313 315 317 320 321 320 319 319 319 319 318 317 316 316 316 315 316 317 317 316 316 317 317 314 312 313 314 313 311 310 308 307 310 314 316 315 316 318 322 323 324 324 324 326 327 329 330 331 333 334 334 335 335 335 333 332
322 321 320 321 320 319 320 319 318 319 320 320 319 319 319 321 322 321 320 320 320 319 319 319 318 316 317 316 312 310 311 315 318 319 319 319 320 319 319 318 317 317 316 316 315 316 317 316 316 316 316 316 314 312 311 312 312 312 310 309 309 312 313 314 315 316 319 321 321 322 323 323 325 326 328 330 330 331 332 333 334 335 334 333 333
321 321 320 320 320 319 317 317 318 320 321 321 320 320 320 322 324 321 319 319 319 318 318 318 317 316 317 317 314 310 308 310 315 318 318 318 317 315 314 312 312 314 314 314 315 315 316 316 315 315 315 315 314 312 312 313 313 313 311 310 311 313 313 314 315 317 319 320 320 321 322 323 324 325 326 328 329 330 331 332 333 334 334 334 333
321 321 321 320 319 319 318 318 319 320 321 321 321 321 322 322 323 322 321 320 319 318 317 317 317 316 317 318 316 314 310 308 312 316 318 317 314 313 313 311 310 311 310 311 313 315 315 315 315 315 315 314 313 313 313 314 314 313 312 312 313 314 314 315 316 317 317 318 319 321 322 323 323 323 324 326 328 329 330 331 332 334 334 334 333
321 320 320 319 319 320 320 320 321 320 320 322 321 322 323 322 322 321 321 321 321 320 319 318 317 317 318 318 317 315 312 308 309 312 314 315 314 314 316 315 314 313 312 312 313 314 314 314 314 314 313 313 313 313 314 314 314 314 313 313 314 314 314 315 316 316 317 318 319 320 321 322 322 323 323 324 326 328 330 331 332 333 334 334 333
321 320 319 320 321 321 322 322 322 321 321 322 322 322 323 323 322 321 321 321 322 322 322 320 318 317 318 318 317 316 314 312 312 313 314 315 316 318 318 317 316 316 315 314 314 313 313 313 313 313 313 313 314 314 314 314 314 314 314 314 314 314 314 314 315 316 317 319 320 321 321 321 321 322 323 324 326 327 329 330 331 331 332 333 333
321 320 320 321 323 323 323 323 322 322 321 321 323 324 323 323 323 320 319 321 322 322 324 323 321 319 318 318 318 316 315 314 315 316 318 319 320 320 320 319 319 318 317 316 315 314 314 314 314 313 313 314 314 315 315 315 314 314 314 315 314 313 314 314 314 315 316 318 321 322 322 321 321 320 321 323 326 327 329 330 330 329 330 331 332
321 322 322 322 323 323 323 323 322 322 322 321 323 324 322 322 322 319 318 321 322 322 323 324 323 320 319 318 318 318 317 316 316 318 319 320 320 320 320 320 321 320 320 318 317 316 316 315 315 314 314 314 314 315 316 315 315 315 315 316 315 314 314 313 313 314 314 316 320 321 321 320 320 319 319 321 324 326 328 330 330 329 329 330 330
321 322 323 322 322 323 323 322 322 323 323 324 325 325 323 322 321 318 318 320 322 322 323 324 323 320 319 319 319 320 320 318 318 319 320 321 321 319 319 321 322 322 321 320 320 319 319 318 317 316 315 314 315 316 316 316 316 316 317 317 317 316 314 313 312 312 313 314 317 319 320 320 320 319 319 319 321 324 326 328 330 329 329 330 330
321 323 324 324 324 324 324 323 323 324 324 325 326 324 322 322 320 318 318 319 321 323 323 324 323 320 319 319 319 320 320 319 318 319 320 321 321 320 319 319 321 322 321 321 322 322 322 320 320 319 317 315 316 317 317 317 317 318 318 318 318 318 316 314 313 313 313 313 315 318 320 320 320 319 319 318 319 321 322 324 328 330 330 330 330
322 323 324 324 325 325 325 325 324 325 325 325 325 323 323 323 321 319 318 318 320 322 324 325 325 321 319 319 318 318 319 318 318 319 319 319 320 320 317 315 317 319 319 319 320 323 323 322 322 322 320 318 317 317 317 318 318 318 319 319 319 319 317 315 314 314 314 314 315 317 318 320 320 319 318 318 318 319 320 323 326 328 330 331 331
322 322 322 324 324 324 325 324 324 325 325 324 324 324 323 323 322 320 319 317 319 322 324 325 325 323 320 318 319 319 319 319 319 319 319 319 320 320 316 313 314 315 315 315 317 320 320 320 321 322 321 319 318 318 317 318 318 318 318 319 320 320 319 317 316 315 314 315 315 316 317 318 319 319 318 317 317 317 318 321 323 323 325 328 330
322 322 323 324 324 324 324 324 324 324 324 324 325 324 324 323 322 321 320 318 320 323 325 326 326 324 321 320 320 320 319 319 319 319 319 320 320 320 317 314 314 314 314 314 315 317 318 318 319 320 319 318 318 318 318 317 317 317 318 320 321 322 321 319 317 316 315 315 315 316 317 318 319 318 317 317 317 316 317 319 320 319 318 321 325
322 322 323 324 325 325 325 324 324 324 324 325 325 325 324 324 323 322 320 319 322 325 326 326 326 325 323 322 322 320 319 318 318 318 318 319 321 320 317 315 315 314 315 314 314 316 317 318 318 317 317 318 319 319 317 316 316 316 318 320 321 322 322 321 318 316 315 315 315 315 317 319 318 317 316 316 315 315 315 318 318 317 316 317 321
322 322 322 324 324 325 325 325 324 324 324 324 325 325 325 324 323 324 322 320 321 325 326 326 326 326 325 324 323 322 321 320 319 319 318 319 319 318 317 317 316 316 316 316 315 315 316 317 317 317 317 318 318 317 316 316 316 316 318 320 321 322 322 320 318 316 315 315 315 315 317 318 316 315 315 314 314 313 314 317 318 318 317 317 319
322 322 322 323 324 324 325 324 325 325 324 324 325 325 325 325 324 325 324 322 321 322 324 326 326 326 326 325 324 323 322 321 322 321 320 318 318 317 317 318 318 318 318 319 318 317 317 317 317 317 317 317 317 317 316 317 316 316 319 321 320 320 321 319 316 316 316 316 315 315 317 316 314 314 315 314 314 314 315 317 318 319 318 316 316
322 322 323 323 323 324 324 324 325 325 325 325 325 325 326 325 325 325 325 325 324 322 322 323 325 326 326 325 324 324 324 324 324 323 322 320 319 318 318 319 319 319 320 320 320 320 319 319 318 318 318 318 318 319 319 318 316 316 319 320 319 320 321 319 317 317 317 315 314 314 315 315 314 315 315 315 315 315 315 317 318 318 318 316 314
322 322 323 323 324 324 325 325 325 325 325 326 326 325 326 325 326 326 326 325 325 324 323 321 322 324 325 325 324 324 324 324 324 323 323 322 321 320 320 320 320 320 321 321 321 320 320 320 320 319 319 320 320 321 320 319 318 317 318 319 318 318 319 318 318 318 317 316 314 314 315 315 315 316 316 316 317 316 315 316 317 317 317 316 314
Wind_Speed
4 4 5 6 6 5 5 4 4 5 4 3 3 3 4 5 4 6 7 7 9 10 9 8 6 7 6 5 6 7 8 8 9 8 5 4 6 7 6 6 4 3 3 3 4 4 5 6 7 8 8 8 8 8 9 9 10 10 10 10 12 13 14 15 18 20 21 22 22 23 25 25 25 24 24 23 23 24 24 21 20 20 18 17 17
6 7 8 8 7 6 6 5 5 6 5 5 5 4 5 5 5 6 7 8 11 12 10 10 9 7 6 5 8 11 11 11 12 10 8 7 7 6 5 4 2 1 1 1 2 2 3 3 4 5 6 7 7 8 8 9 9 10 10 11 12 13 14 15 17 18 20 21 21 22 22 24 25 26 25 24 23 23 24 24 23 22 20 19 19
9 10 9 7 7 6 5 6 6 4 5 5 5 5 6 6 6 6 7 11 13 11 10 11 8 6 6 7 8 10 10 10 11 12 10 9 7 3 2 2 1 2 3 4 4 2 1 0 1 2 3 4 6 6 7 8 9 9 10 11 12 13 15 16 18 19 20 21 22 22 21 22 24 26 26 25 24 23 24 26 25 23 22 20 19
8 8 8 8 7 6 5 6 5 4 5 4 4 5 7 7 6 4 7 11 13 12 10 10 10 8 7 7 8 9 10 10 11 12 12 10 8 6 5 4 4 5 5 5 6 4 5 5 3 4 3 3 4 5 5 7 7 7 8 9 11 13 14 16 17 19 20 21 22 22 22 21 23 24 26 26 26 25 25 26 27 25 24 21 20
7 8 9 8 6 5 5 6 5 4 5 5 5 6 8 7 4 5 8 11 13 13 11 9 10 10 10 10 11 11 13 13 13 13 12 12 11 10 9 7 7 7 5 5 6 5 6 5 4 5 5 6 6 5 7 9 7 7 8 8 9 11 12 14 16 17 19 21 22 22 22 22 23 24 25 26 28 27 26 27 27 27 26 23 21
10 10 9 7 7 6 6 7 6 6 5 6 7 7 6 6 6 7 10 10 12 13 11 9 8 10 13 13 15 16 16 17 17 16 14 14 14 13 11 9 9 9 7 6 6 6 6 5 4 5 6 7 8 9 10 12 11 9 9 9 9 9 11 13 14 15 18 20 21 22 22 23 24 25 26 26 27 28 28 28 28 28 27 25 23
9 9 8 7 7 7 8 7 6 7 7 7 7 6 6 7 8 9 10 9 10 11 10 9 8 9 12 14 16 17 17 17 18 17 16 16 16 16 14 12 11 10 9 9 9 9 10 9 7 6 7 9 10 11 12 14 14 13 13 13 11 10 11 11 12 13 16 18 20 21 22 24 24 26 27 27 27 28 29 30 29 28 29 28 25
8 8 8 7 7 8 8 7 6 8 10 8 6 8 7 8 9 11 12 10 8 8 8 8 8 8 10 13 15 16 16 17 17 17 16 16 17 17 16 14 13 12 11 12 11 12 13 11 9 8 10 12 12 13 14 15 15 15 15 15 14 13 12 10 10 11 13 16 17 20 22 25 25 26 28 29 29 28 30 31 30 29 30 29 27
8 7 7 7 6 7 8 7 6 10 12 11 10 10 9 9 11 13 15 13 9 6 6 7 7 7 10 13 14 15 15 15 15 16 16 15 15 16 15 14 14 13 13 13 13 13 12 10 10 11 13 14 13 13 14 15 16 16 16 16 16 16 15 12 10 9 10 12 14 16 19 23 26 27 28 30 30 29 29 31 31 31 31 30 28
8 6 6 6 6 7 7 7 8 9 10 11 11 10 10 10 12 15 16 15 11 6 6 7 7 7 10 13 14 14 15 15 15 15 15 14 13 13 14 13 13 14 14 14 14 12 11 11 12 13 13 13 14 14 15 17 19 19 18 18 19 19 19 16 12 11 11 12 13 14 15 18 23 27 30 30 30 29 29 30 31 31 31 30 29
8 7 8 7 6 6 7 7 8 8 9 12 12 10 10 10 13 16 17 17 13 8 7 7 8 9 10 12 13 14 15 15 15 13 13 13 12 12 12 12 13 15 15 15 14 12 12 12 12 13 13 14 15 16 17 19 20 22 22 21 21 22 22 20 17 14 13 14 14 14 15 17 21 26 30 30 28 29 29 29 31 31 31 31 29
6 8 8 8 8 8 8 7 8 9 11 13 13 12 11 11 13 14 16 17 15 11 8 8 13 16 14 12 12 13 15 15 14 12 12 14 14 13 12 14 14 15 16 15 13 13 12 11 10 11 12 13 15 16 17 19 20 22 23 23 23 23 23 23 22 19 17 17 16 15 16 18 22 26 28 29 30 32 31 30 31 32 31 31 31
5 7 8 9 11 10 8 7 8 11 13 13 13 13 13 12 12 13 16 18 18 14 8 10 16 17 17 17 16 16 15 13 12 11 11 13 15 13 12 14 14 13 13 13 13 13 12 11 10 9 9 11 13 14 16 18 20 21 22 24 24 23 24 25 24 23 22 21 21 19 16 18 22 25 27 30 34 35 34 32 33 33 32 31 32
7 9 10 12 12 11 11 10 11 12 12 12 12 13 14 14 13 14 17 20 21 19 12 9 11 9 10 13 14 15 16 14 12 11 9 10 13 13 12 12 11 8 8 9 11 12 12 11 10 10 11 13 15 16 16 18 19 20 21 22 24 24 24 24 25 25 24 24 24 23 19 20 22 21 24 30 35 37 35 35 35 35 33 32 31
13 13 12 12 10 12 14 14 13 12 11 11 12 13 15 15 14 15 16 19 20 21 18 11 8 7 7 6 4 5 8 10 12 12 11 9 10 12 12 11 9 7 6 8 10 11 11 11 10 11 11 13 15 15 17 18 19 19 20 21 23 25 24 24 25 25 26 26 26 26 24 22 23 18 18 28 35 38 37 35 35 34 33 32 31
16 13 11 10 10 12 14 14 12 11 10 12 13 14 15 15 15 15 15 17 18 19 21 18 11 6 5 3 1 2 2 3 5 9 16 18 13 10 9 9 10 9 7 8 10 11 11 11 10 10 11 11 12 13 14 16 18 19 19 19 22 24 24 24 25 25 26 27 27 29 27 25 22 17 13 23 35 38 37 35 33 33 31 32 32
15 12 10 10 11 13 13 12 13 12 11 13 14 15 15 15 15 16 16 16 16 16 19 21 19 13 7 4 2 2 1 3 3 4 12 22 20 12 9 9 10 10 9 9 10 11 11 11 11 11 11 11 11 12 13 16 18 19 19 18 21 23 23 23 25 25 26 27 28 29 30 29 22 18 17 19 35 35 33 33 30 30 30 30 31
13 12 12 11 11 11 10 12 14 14 12 13 15 15 15 15 15 16 17 15 15 16 16 19 21 20 16 12 9 6 2 1 1 1 5 15 22 18 10 9 11 11 11 10 10 11 11 11 11 12 11 10 12 13 13 15 17 19 19 18 20 23 22 22 24 24 25 26 27 29 30 32 23 18 20 8 29 29 26 27 26 27 29 28 27
14 12 11 10 11 10 10 12 15 16 14 13 15 16 16 15 15 15 16 16 16 18 17 16 18 20 20 18 17 14 10 6 3 1 1 6 15 19 15 10 10 10 10 10 10 10 10 10 10 10 9 8 10 11 12 13 15 17 18 19 22 23 21 21 22 23 24 25 26 28 28 30 27 23 21 8 18 21 19 21 21 22 23 24 25
16 14 11 9 9 11 12 12 13 15 16 15 15 17 16 16 15 16 15 16 18 19 19 16 15 16 17 18 18 17 15 13 9 6 3 1 7 12 15 14 11 9 10 10 10 10 10 10 11 12 9 8 9 12 12 12 14 17 18 19 21 23 21 20 21 21 22 23 24 26 26 27 28 27 22 15 12 13 12 14 16 16 15 18 23
14 12 11 9 6 8 11 13 14 14 15 16 15 15 14 14 15 16 16 15 15 17 18 18 16 15 15 15 15 15 15 14 13 12 8 4 3 4 9 12 11 9 8 9 10 10 11 12 14 17 13 10 11 12 13 12 12 15 18 19 21 22 20 19 20 20 20 22 23 24 25 25 25 26 23 17 12 9 7 7 10 13 12 14 19
12 12 12 10 7 5 8 12 14 14 15 15 14 13 12 13 13 14 16 17 15 15 17 17 15 15 16 15 15 14 13 12 12 13 10 6 4 3 6 8 8 8 6 7 7 8 11 13 15 19 17 14 14 13 13 14 13 15 19 20 20 20 19 18 20 20 19 20 21 22 24 23 22 22 22 18 14 9 4 4 6 9 11 13 16
13 14 13 9 7 7 9 11 11 12 14 13 12 11 11 14 15 12 13 16 16 15 17 17 15 14 16 17 17 15 12 10 11 12 10 6 4 3 6 6 6 9 6 5 6 8 11 14 16 20 19 17 18 16 14 15 15 17 20 19 18 19 19 19 19 18 18 18 19 20 21 21 20 18 18 17 15 11 6 1 3 6 10 12 14
15 14 12 8 8 9 10 10 9 10 11 12 12 11 11 14 17 14 14 16 16 15 16 18 16 14 14 15 16 15 11 9 10 12 11 8 6 3 4 4 5 9 10 8 10 12 13 14 17 20 20 18 19 16 15 16 14 16 20 17 17 19 18 18 18 17 18 18 17 18 19 20 18 16 15 15 14 12 9 6 3 5 8 11 12
15 13 11 10 10 11 10 9 8 9 12 13 12 12 11 12 16 16 16 16 15 14 15 16 16 15 14 12 13 14 12 9 9 11 12 9 6 4 4 4 4 8 11 11 11 11 13 13 15 19 19 17 18 17 17 17 14 17 19 16 17 18 16 17 18 17 17 17 17 16 17 19 17 15 13 13 14 13 12 10 7 4 6 9 12
14 12 11 12 14 13 12 11 10 11 13 14 13 12 11 13 16 17 16 15 14 13 13 13 13 15 14 13 11 9 10 10 9 9 10 8 5 3 3 4 5 7 10 12 12 12 13 12 14 19 18 17 18 17 18 17 14 17 18 17 17 17 17 18 18 17 16 16 17 17 16 18 18 16 13 11 11 13 13 11 8 5 5 7 10
14 13 13 15 16 14 14 14 14 15 14 13 12 12 11 13 17 17 16 14 13 12 12 11 10 11 12 13 12 9 7 6 8 9 8 7 5 3 4 4 4 5 6 8 10 13 16 12 13 18 17 16 18 16 16 16 15 16 17 17 17 17 19 19 17 18 17 16 18 18 17 17 17 17 15 12 10 11 11 12 11 8 6 6 8
16 15 13 15 15 15 14 13 13 14 14 13 13 13 12 12 14 16 14 12 12 12 12 12 11 10 10 11 13 13 9 4 4 7 9 8 6 3 3 4 4 2 3 5 5 9 16 15 13 17 19 19 19 15 13 14 15 16 16 16 16 17 20 18 16 18 18 16 18 19 18 16 15 16 16 13 11 11 11 12 13 13 10 8 8
16 14 13 13 14 14 14 12 10 11 11 12 13 14 13 13 13 12 11 10 12 12 11 12 13 11 10 10 12 14 13 8 4 5 8 10 9 6 4 3 5 4 1 3 4 5 13 17 14 17 21 20 18 15 14 14 14 14 15 15 14 16 18 16 15 17 18 17 17 18 18 14 13 14 15 14 12 11 11 12 14 16 14 12 10
14 13 13 13 13 13 13 13 11 9 8 9 11 13 13 12 12 11 10 9 9 11 11 12 13 13 10 8 9 13 14 12 9 7 9 12 13 13 10 8 9 8 5 3 3 6 12 16 16 18 22 20 17 17 16 16 15 15 15 15 15 16 17 15 12 13 16 17 17 18 16 13 14 13 13 13 13 11 11 12 13 16 16 16 14
14 15 15 14 14 13 13 14 13 11 10 10 9 9 8 8 8 9 9 8 7 9 10 11 13 15 13 8 7 11 13 13 13 12 13 15 15 16 16 15 14 13 10 6 4 7 12 16 17 20 21 18 17 18 18 17 16 16 17 17 16 17 17 15 12 10 13 16 17 18 16 13 14 15 12 12 13 12 11 11 12 14 17 18 17
15 16 15 14 14 14 14 14 13 12 10 9 7 5 3 1 2 5 6 7 6 7 8 8 10 13 15 12 7 8 11 12 13 13 14 15 15 15 15 15 15 13 12 10 5 6 12 16 17 20 21 17 17 19 18 16 16 17 19 19 20 19 16 14 12 9 11 15 16 17 16 14 14 15 14 13 13 13 12 11 11 13 16 18 18
15 16 14 14 14 13 13 13 12 10 9 8 6 2 1 2 3 3 3 5 6 6 7 7 7 9 13 14 8 5 7 10 11 11 12 13 13 14 14 13 14 13 12 12 10 8 12 16 17 19 20 17 18 21 18 16 18 20 22 23 22 19 15 13 12 9 11 14 16 15 15 15 14 13 14 14 13 12 11 11 11 12 14 17 18
13 14 14 14 13 12 13 12 11 8 6 5 3 1 2 5 3 1 2 5 8 7 6 6 6 7 10 14 11 5 4 7 10 10 10 11 11 12 13 12 13 13 11 12 12 10 12 15 17 19 18 15 18 22 19 19 22 24 25 26 22 17 14 13 12 10 11 13 14 14 14 15 15 13 13 13 13 12 11 11 11 11 13 15 18
12 13 14 15 14 12 11 12 10 7 4 3 3 2 4 10 11 9 5 5 11 8 6 6 5 6 8 12 13 9 5 5 7 8 8 9 10 10 11 10 10 11 11 12 12 11 12 14 15 17 16 14 18 21 21 22 24 26 26 26 22 18 15 14 12 11 10 12 13 14 14 15 14 14 13 12 12 12 12 11 11 11 12 15 17
14 16 17 17 13 9 9 11 10 6 4 4 3 3 4 8 11 13 11 9 11 7 5 5 4 5 8 11 12 12 9 5 5 7 8 10 11 11 11 11 10 9 10 10 10 11 12 13 13 14 14 14 17 19 20 23 25 26 26 25 23 21 18 14 13 13 12 13 13 13 14 14 14 14 14 13 12 13 13 12 11 11 12 14 17
16 18 16 13 9 7 8 10 9 6 5 4 4 4 4 5 7 10 11 10 9 6 4 3 3 4 7 10 11 13 12 7 5 6 7 9 11 12 13 14 14 12 10 9 8 9 11 12 12 13 13 14 15 16 18 20 22 25 27 25 24 25 22 16 15 17 17 16 14 14 15 14 13 14 15 14 13 12 13 14 12 11 11 14 17
15 15 12 10 10 10 9 9 9 8 6 5 5 4 4 4 5 7 8 8 7 6 4 2 2 3 6 7 8 12 13 11 9 7 8 9 9 10 11 12 13 12 11 10 9 9 10 12 12 13 14 13 13 15 17 18 19 23 27 26 26 27 25 18 18 21 22 20 18 16 16 15 14 15 16 16 14 12 12 14 13 13 12 13 16
14 13 12 11 11 11 10 8 9 7 6 6 4 2 2 3 4 6 6 3 5 8 8 3 1 1 3 5 6 10 12 12 12 11 11 10 8 9 9 9 9 9 9 9 9 8 9 11 12 12 13 13 14 16 16 16 16 19 24 26 26 27 25 20 20 24 25 23 19 17 16 15 15 16 17 17 14 11 11 13 14 14 13 13 15
15 15 14 12 11 10 8 8 9 6 5 5 2 0 0 1 2 5 6 2 1 5 8 8 4 2 0 3 4 7 9 10 10 10 10 9 8 8 9 8 8 8 8 8 7 7 8 10 11 12 13 15 16 16 16 15 16 17 21 23 24 25 25 20 18 24 28 27 22 19 18 18 18 18 18 18 15 11 11 12 13 14 14 14 15
15 13 11 10 10 9 7 9 11 7 4 5 2 1 1 2 5 5 4 2 2 3 5 10 7 2 3 1 2 4 7 8 7 6 6 6 7 9 10 9 8 8 8 8 8 8 9 10 12 13 14 17 18 17 16 14 14 16 19 22 22 23 25 21 17 21 27 27 25 22 21 20 21 21 20 19 17 14 13 12 13 14 15 15 16
12 7 5 6 7 7 6 9 11 7 4 5 4 1 0 4 6 4 3 3 2 2 2 8 7 2 5 2 1 3 3 3 3 3 3 5 7 9 10 9 8 7 7 9 10 11 11 12 13 13 14 16 18 17 15 13 14 15 18 21 21 22 23 21 17 18 23 25 25 24 21 20 21 22 22 20 18 16 16 15 13 14 15 15 16
9 6 7 8 7 6 5 6 7 5 4 6 4 1 2 5 6 4 4 4 2 2 2 5 6 2 6 3 0 1 2 1 2 3 3 4 7 9 9 8 7 6 6 8 10 12 13 13 14 14 14 16 17 16 14 13 15 16 18 19 20 20 19 16 14 16 19 21 22 23 20 19 20 22 22 21 19 17 17 17 14 14 15 16 16
8 8 9 10 9 8 6 6 6 4 4 4 2 1 3 5 6 5 5 4 3 2 2 3 5 2 5 3 1 2 2 1 2 4 5 6 7 9 9 8 5 4 5 7 9 11 13 13 14 15 15 16 17 15 14 15 16 17 19 19 18 18 17 14 15 17 17 18 19 19 18 18 19 22 22 21 20 18 17 17 15 14 15 16 17
8 7 7 7 7 6 4 4 4 4 3 1 2 2 3 6 7 6 5 6 5 3 2 3 6 3 5 4 3 3 3 3 3 4 6 8 9 10 11 8 5 4 6 7 8 9 11 12 13 14 14 14 15 14 15 17 17 18 19 20 19 18 17 16 19 20 19 18 18 17 16 16 17 20 22 21 20 19 17 16 15 15 16 16 17
8 6 5 5 4 3 3 2 3 4 2 1 2 3 4 6 7 7 7 7 5 3 3 4 5 5 6 6 7 6 4 4 5 6 7 8 9 11 11 10 9 8 8 7 7 8 9 10 11 12 12 11 13 15 18 19 19 18 18 19 20 19 19 19 20 22 21 18 17 15 14 14 15 18 20 21 21 21 19 16 14 15 17 18 17
6 5 4 3 2 2 1 0 2 4 3 3 3 3 4 5 6 7 8 7 5 4 4 5 5 5 6 9 10 9 6 6 7 8 8 9 9 10 11 11 10 10 9 8 7 8 8 8 9 11 11 12 15 19 21 21 20 18 16 17 19 19 19 20 20 21 20 17 14 14 13 14 15 17 19 21 22 22 19 15 13 16 18 19 18
6 5 6 5 4 4 4 3 2 3 4 3 3 3 4 5 6 7 8 8 7 7 7 6 5 6 7 9 12 12 9 9 9 9 9 10 11 11 12 12 12 11 10 9 8 8 9 9 10 11 13 16 19 20 21 20 19 17 15 16 19 18 17 18 19 20 20 19 17 14 14 15 16 17 19 21 22 23 21 15 14 16 19 20 19
7 6 7 7 6 6 6 6 5 4 4 4 4 4 5 6 6 7 7 8 8 8 9 8 7 8 8 9 10 12 13 13 12 11 11 11 12 13 14 14 14 15 14 12 10 11 11 12 13 14 15 18 19 20 20 19 18 17 14 16 18 16 14 14 14 15 19 22 19 14 13 16 17 17 19 21 22 23 20 16 17 18 20 22 22
6 5 5 7 8 8 8 8 8 7 5 5 4 5 5 6 7 7 8 9 9 9 9 9 9 9 9 9 10 11 13 14 15 16 15 15 15 16 17 17 18 19 19 17 16 16 16 16 17 17 19 20 21 22 21 20 18 16 14 15 16 14 13 14 14 15 20 22 17 10 11 15 18 18 19 19 21 23 20 18 20 22 21 23 23
3 3 2 2 5 6 7 7 9 10 9 7 5 5 5 6 7 8 8 10 11 11 10 10 11 11 10 10 10 10 11 11 12 14 15 16 19 19 20 20 21 23 23 21 20 21 21 22 22 22 23 24 25 25 24 21 19 17 14 12 13 13 14 16 17 14 12 14 15 13 13 17 19 19 18 14 12 17 21 21 22 24 23 24 23
Wind_Direction
125 100 96 104 102 97 91 83 64 40 23 13 17 25 22 18 4 352 359 14 21 18 23 42 57 60 64 65 73 78 73 78 86 94 117 157 186 192 193 202 221 249 264 263 261 273 272 265 277 289 291 290 287 278 266 263 268 266 261 258 253 250 246 241 243 246 247 249 252 253 253 251 246 242 240 236 234 232 231 231 227 223 222 222 219
118 98 99 107 109 106 92 79 70 52 41 44 48 45 27 16 356 352 9 22 24 26 46 78 84 72 75 84 91 92 88 90 91 93 106 130 164 192 202 203 230 273 297 307 315 327 304 281 289 305 304 296 296 293 285 280 281 281 275 267 260 256 252 248 247 248 247 247 249 251 249 248 245 241 239 235 233 232 230 230 228 222 219 221 225
118 107 103 111 119 113 93 81 78 52 34 49 53 33 17 5 344 351 19 28 32 45 74 87 82 74 84 93 96 96 96 98 96 99 109 125 145 168 175 148 96 75 62 59 57 54 67 279 301 334 315 304 315 309 301 295 289 287 282 275 269 263 258 254 252 251 250 248 248 250 248 246 244 241 238 234 232 231 229 228 225 222 219 218 226
124 123 115 120 127 118 94 79 68 37 30 43 37 13 357 345 334 360 32 36 45 67 91 88 81 83 88 94 96 93 95 97 93 96 103 108 111 102 93 91 88 78 64 79 82 70 67 58 35 25 7 340 330 317 328 325 303 296 296 284 275 270 265 261 258 256 255 252 248 248 248 248 246 241 237 234 232 231 228 227 224 222 220 217 222
118 129 126 126 125 110 86 72 54 32 33 33 16 356 344 345 3 46 46 46 55 71 86 88 88 91 91 94 96 94 94 91 85 89 96 94 90 88 88 88 86 74 70 99 87 58 59 55 39 34 27 16 9 13 15 4 342 325 321 306 288 280 274 268 264 261 258 255 251 249 249 248 247 242 238 235 234 232 228 227 224 220 219 217 219
111 123 122 117 111 90 71 63 48 33 26 17 5 358 1 21 49 56 51 52 55 63 71 73 89 101 97 94 95 96 94 89 86 87 91 88 80 76 80 84 85 77 71 82 71 53 54 43 39 44 39 34 34 38 30 19 10 356 345 332 312 298 288 278 272 267 261 257 255 252 250 249 247 243 238 236 234 232 227 225 226 220 219 218 216
113 121 118 108 97 77 65 59 40 26 14 2 4 21 45 48 44 47 54 57 53 55 57 60 87 115 108 99 98 98 95 92 89 87 86 82 74 70 73 76 77 74 63 62 63 60 54 49 57 62 54 52 48 42 32 23 16 9 5 353 336 320 303 288 281 276 269 265 260 255 252 250 247 243 240 236 233 231 227 224 225 222 218 219 217
113 115 112 102 86 75 73 63 45 38 33 31 42 49 53 50 46 51 54 49 40 43 44 52 85 125 123 111 106 103 98 95 92 90 86 80 73 68 70 71 68 67 63 63 68 66 59 57 65 70 65 61 55 44 35 29 20 13 10 5 358 346 331 313 296 287 278 272 266 258 253 252 249 243 240 236 232 230 227 223 224 223 219 217 216
118 110 98 86 79 85 82 75 65 52 48 56 59 47 46 56 63 61 53 42 31 31 35 47 76 122 134 124 116 110 103 100 99 95 91 85 79 72 70 70 68 68 70 68 69 72 69 67 72 76 71 63 57 48 41 38 32 23 15 13 15 8 358 346 328 317 304 291 281 268 257 256 253 248 243 237 232 228 227 223 221 222 219 216 215
111 103 88 83 90 89 86 89 75 54 53 58 52 47 53 66 76 67 52 44 38 38 43 48 68 105 133 130 122 119 113 108 108 105 98 89 84 82 77 77 79 74 70 69 72 76 76 74 80 81 73 65 60 56 50 44 38 33 25 18 19 19 16 8 353 339 328 319 307 291 274 264 259 253 247 241 235 230 228 225 220 219 218 216 214
99 95 90 87 94 92 94 95 74 62 66 59 51 53 61 75 87 74 56 50 49 55 58 57 76 96 126 138 128 123 120 118 117 110 97 84 85 91 83 84 90 82 71 71 74 77 77 77 81 84 77 70 65 59 53 47 39 36 31 25 22 21 20 16 9 358 346 338 323 306 293 280 269 259 251 243 236 231 227 224 220 218 216 216 213
102 100 91 84 95 106 104 86 65 75 79 66 58 59 65 81 94 80 60 54 54 63 72 83 94 95 105 127 130 120 118 122 119 108 92 80 84 92 88 87 91 86 77 74 75 75 78 82 84 85 77 69 62 57 53 49 42 35 31 29 26 23 19 16 13 9 2 352 339 322 304 293 280 265 253 241 232 227 223 220 219 217 215 215 214
116 115 97 95 103 98 82 64 75 91 85 73 67 66 72 87 98 84 64 55 51 56 74 103 102 93 94 103 107 103 103 110 110 106 98 88 89 93 94 93 88 85 82 78 78 77 80 84 85 80 68 57 53 50 48 48 41 32 28 27 26 24 20 16 13 10 6 1 351 338 318 308 298 273 251 235 227 223 217 213 214 215 213 212 213
124 123 106 108 105 81 71 81 98 99 89 79 73 70 74 84 94 88 73 61 52 51 63 98 99 92 98 95 91 90 88 85 86 95 98 97 104 102 96 93 87 86 89 86 84 82 82 83 82 76 65 57 53 49 45 44 39 30 25 23 22 22 21 16 12 9 6 3 358 351 336 325 318 289 251 230 223 220 214 209 208 210 211 210 211
124 119 108 110 100 80 84 95 99 92 85 82 75 71 72 76 85 90 83 70 58 54 59 72 84 91 101 91 79 86 75 63 63 72 72 79 110 114 98 91 97 103 103 98 92 87 86 82 79 76 69 61 56 50 46 43 38 31 23 18 15 15 17 16 12 9 6 3 360 358 349 337 334 312 257 227 217 214 210 206 204 205 208 209 210
124 115 107 107 98 91 90 89 86 79 80 82 76 73 73 74 78 84 86 77 63 58 59 63 69 79 92 97 96 82 54 360 24 56 60 60 77 117 118 102 106 113 108 104 99 93 87 81 76 71 66 59 52 44 38 35 32 31 25 16 10 8 12 14 10 8 6 4 2 360 357 350 345 336 285 231 213 207 204 201 202 203 205 206 208
121 107 103 105 102 95 85 78 74 74 84 88 81 76 76 76 77 80 82 79 72 66 64 64 65 69 84 98 84 84 205 293 347 50 58 55 59 86 124 113 105 112 113 110 106 99 89 81 73 64 58 51 44 35 29 27 25 27 27 18 11 7 8 11 8 6 6 5 4 2 3 1 352 346 329 246 210 201 197 196 199 201 203 204 204
120 104 97 102 104 97 89 84 76 75 87 94 86 80 77 76 78 81 79 79 80 73 66 68 71 74 80 83 79 88 139 286 44 62 47 50 54 64 87 108 105 105 110 111 109 102 90 79 69 58 52 46 41 34 29 26 20 22 26 22 15 9 7 9 7 5 4 6 7 6 6 7 5 3 354 255 194 187 187 189 194 197 199 201 201
121 112 101 97 98 99 103 98 89 83 86 94 91 83 79 78 79 82 78 77 79 72 64 69 74 76 80 80 77 77 73 68 80 104 23 36 45 53 63 87 104 101 102 104 104 98 85 75 63 50 44 40 39 33 25 25 24 25 26 20 15 11 8 8 6 4 3 3 8 11 9 8 13 21 19 54 152 163 174 180 189 196 197 199 201
116 113 107 101 93 95 103 108 107 95 86 90 96 90 84 82 81 82 79 73 72 69 66 68 69 72 80 81 78 75 70 68 69 75 105 41 23 39 49 64 90 100 98 98 98 90 75 67 53 39 36 37 38 27 19 28 35 32 25 16 12 10 8 7 5 4 3 2 6 12 12 11 16 24 26 43 97 131 154 170 188 199 197 199 203
121 120 118 118 105 96 100 106 111 105 92 89 95 97 86 78 79 80 77 73 71 69 68 67 67 69 75 77 79 79 73 68 63 63 75 77 36 9 24 45 66 80 96 104 97 80 65 62 46 34 31 33 31 23 23 36 37 29 21 12 7 6 7 7 4 4 4 2 3 9 14 15 17 23 25 34 63 94 123 155 188 199 196 197 203
127 133 131 123 111 106 106 105 107 108 101 93 93 98 88 72 74 80 79 76 72 70 69 69 72 72 69 72 76 77 74 66 58 57 61 71 74 22 7 26 39 47 83 114 101 78 59 49 35 28 31 37 33 32 37 35 28 25 19 9 6 8 8 5 2 3 5 5 4 7 12 15 19 22 25 30 43 60 99 159 189 198 199 202 207
126 134 136 125 110 109 109 105 107 110 107 100 95 97 91 72 68 80 86 79 72 71 68 70 80 81 73 71 70 68 73 73 65 60 57 60 65 32 11 21 34 38 61 92 73 65 53 40 33 33 42 48 42 43 44 29 21 18 15 12 12 9 5 2 0 1 4 6 5 6 9 13 17 21 23 26 34 42 48 47 222 216 209 208 211
132 133 132 128 120 115 109 99 101 115 115 109 101 99 92 72 66 77 89 82 74 70 65 66 80 87 80 74 65 59 65 77 77 67 57 56 63 44 7 18 43 42 52 64 57 55 49 38 36 37 42 43 35 34 29 21 19 14 12 20 19 9 4 3 2 1 1 3 5 7 9 10 14 18 19 21 25 32 36 27 342 259 233 222 221
135 133 127 124 122 119 116 104 103 123 124 114 106 101 90 71 66 75 86 85 77 71 65 64 71 79 81 79 69 63 64 73 83 68 54 54 58 45 26 40 52 46 49 49 47 48 40 36 35 30 32 33 25 22 18 17 24 17 12 17 15 9 8 7 6 4 2 5 8 10 10 11 14 17 17 18 19 23 26 24 11 324 268 247 238
138 136 128 122 122 118 111 104 107 125 127 116 107 101 89 72 69 78 86 84 78 75 69 65 67 70 73 75 69 64 64 74 85 68 50 46 44 35 46 57 49 47 51 43 39 37 26 29 32 24 25 28 21 18 16 18 26 17 9 11 13 13 13 12 12 11 9 8 9 9 8 9 13 17 17 15 16 18 19 17 12 349 308 271 250
138 135 123 119 125 123 114 104 103 114 119 116 109 104 94 79 75 80 85 77 73 79 74 66 66 66 67 68 62 52 50 73 82 70 56 39 26 33 58 71 50 27 40 40 40 33 20 22 30 24 22 20 17 16 13 20 26 14 7 13 16 16 17 17 15 14 14 11 6 5 2 1 6 11 16 16 11 10 10 11 11 359 332 298 265
137 131 119 118 126 131 127 112 101 104 107 106 107 110 105 94 87 85 83 74 70 81 81 69 65 67 68 66 60 51 47 66 78 62 59 44 28 24 31 67 84 42 11 21 26 27 20 16 17 19 16 13 17 23 21 27 28 13 6 10 8 8 11 13 10 9 12 9 5 3 0 357 358 2 9 12 9 4 0 4 10 8 354 328 294
140 131 120 123 128 133 135 122 106 102 102 99 102 112 113 108 105 98 92 82 73 80 87 77 68 67 71 68 59 52 52 63 55 25 41 44 43 39 5 32 90 98 89 22 1 4 15 14 11 10 11 16 25 32 30 27 22 11 6 6 3 360 0 3 0 357 360 3 2 3 3 2 358 356 359 2 4 360 354 359 10 14 8 355 331
146 138 132 130 129 130 131 125 113 104 109 110 104 111 116 115 115 112 106 99 83 80 85 81 72 67 72 76 58 51 53 58 49 30 42 55 59 61 55 54 65 69 87 79 16 1 9 12 13 8 9 22 34 34 33 31 26 21 14 9 6 360 355 360 360 346 348 358 3 5 7 7 3 358 352 350 355 356 349 353 9 16 15 10 359
152 147 139 132 128 126 126 124 117 107 112 122 116 110 115 120 124 123 117 112 98 87 84 81 76 67 66 74 56 47 52 57 59 55 59 69 74 72 67 65 63 58 65 78 41 15 12 7 8 9 15 30 39 32 33 35 29 22 16 10 5 357 352 357 3 347 342 356 8 10 10 12 10 6 356 343 345 351 348 350 3 11 15 15 11
161 157 149 138 130 125 124 123 121 117 116 123 129 121 112 124 149 139 130 127 120 104 93 86 79 66 60 64 61 49 52 60 67 67 68 75 79 78 73 70 69 62 60 66 51 13 12 10 11 17 23 36 38 28 26 28 22 13 6 360 354 351 349 353 359 348 341 358 14 15 11 14 12 5 1 350 342 345 346 348 353 1 10 14 13
161 164 160 148 137 132 132 127 123 128 134 133 133 145 215 304 269 208 166 148 143 123 113 102 85 71 59 59 65 64 60 67 73 71 70 72 73 74 71 66 66 62 58 58 51 19 8 14 22 25 28 37 34 26 24 19 11 2 357 352 350 351 352 355 356 345 344 2 17 16 8 8 3 354 356 355 348 343 344 346 346 352 3 9 11
156 164 165 156 150 148 144 134 123 123 136 138 126 143 68 41 40 240 245 184 166 138 131 129 95 82 65 55 58 66 73 77 78 75 72 68 63 60 56 51 53 53 48 44 41 28 10 12 21 25 29 36 27 21 21 14 7 2 357 355 355 356 358 360 357 349 353 10 20 14 2 359 356 348 348 356 357 350 345 345 344 347 356 3 7
155 157 159 158 155 154 149 143 139 129 118 114 102 95 56 49 59 63 51 152 165 150 147 152 113 89 69 54 54 57 63 81 82 79 76 67 55 43 33 27 32 39 37 30 30 30 15 7 15 22 29 31 19 16 18 15 10 5 359 359 2 4 2 1 1 2 10 18 19 14 5 2 360 351 343 348 358 357 350 345 342 344 350 357 3
151 146 149 151 151 148 144 145 148 138 109 106 112 99 55 47 61 63 66 120 154 152 146 148 127 96 65 53 55 56 54 66 91 88 78 64 53 43 33 28 29 30 28 27 29 30 19 6 7 16 24 19 10 12 15 13 11 7 3 6 11 12 10 10 14 21 26 23 16 13 11 7 5 360 350 344 348 355 353 347 341 341 343 350 357
146 146 148 152 152 149 146 146 149 144 122 117 121 107 80 56 53 56 71 106 137 150 156 153 133 99 60 49 56 55 52 60 88 92 77 68 62 54 46 44 45 41 32 28 26 20 11 3 357 358 4 4 3 9 9 3 3 6 8 13 16 14 14 22 31 30 26 21 17 13 12 10 7 5 0 351 344 348 353 349 344 341 338 343 349
153 154 154 156 156 154 153 152 153 152 138 119 112 99 69 45 35 35 53 85 93 93 115 171 184 96 55 45 55 57 56 67 84 85 78 80 73 54 45 45 48 48 41 34 26 15 7 5 359 352 354 358 1 4 1 356 358 5 7 11 16 16 16 21 29 28 23 19 17 14 11 11 9 7 6 360 348 345 355 354 348 346 339 337 342
164 164 163 163 166 165 163 160 155 148 136 124 118 95 35 42 38 10 6 53 72 55 59 74 198 112 49 40 55 62 64 78 91 89 84 82 70 47 37 35 36 39 37 31 26 19 10 6 3 356 351 350 351 353 356 354 355 4 7 5 7 12 13 16 20 21 19 16 16 17 14 12 11 9 9 6 356 348 359 2 355 352 346 338 338
164 166 170 174 181 184 188 190 180 163 150 152 153 180 16 44 21 352 344 339 53 26 34 34 10 254 273 28 57 68 68 79 91 88 77 67 52 34 22 14 10 8 10 12 10 5 359 352 348 345 340 338 341 347 356 357 353 359 5 2 358 1 4 8 16 19 15 11 12 17 18 13 10 8 8 8 5 357 358 3 1 358 356 350 344
159 163 176 188 196 201 214 211 194 183 182 186 194 223 200 10 4 355 346 330 298 315 15 21 7 253 226 316 55 71 64 71 80 77 59 36 22 19 15 7 360 350 342 343 341 336 334 330 330 332 329 330 335 339 347 356 353 350 354 355 353 355 357 359 7 14 13 8 5 9 14 12 7 5 4 4 5 3 356 354 356 357 360 358 351
164 162 178 195 202 205 209 201 193 193 186 169 165 196 264 7 3 356 355 356 318 273 344 12 5 242 220 251 44 75 75 80 72 58 36 8 6 15 15 9 8 2 344 336 333 328 320 312 313 320 318 321 329 333 336 346 349 343 344 346 346 346 351 354 355 3 10 8 1 359 4 9 5 360 1 1 359 359 356 348 341 343 351 354 351
172 146 130 134 139 143 143 155 173 190 182 166 163 143 18 16 10 2 359 357 323 257 277 3 3 245 216 228 120 127 182 185 33 25 12 2 8 14 14 13 15 13 359 345 337 332 323 308 302 305 304 308 320 329 334 339 341 339 339 340 338 337 341 342 334 342 0 5 357 351 354 2 1 354 355 359 354 351 354 351 339 332 338 345 348
176 153 129 122 121 121 114 113 127 146 161 166 163 19 13 10 9 6 354 335 313 270 257 351 355 275 219 228 253 227 231 268 2 10 1 358 360 360 5 14 15 352 334 331 329 330 330 319 303 296 297 302 309 320 333 336 334 334 335 335 334 328 325 321 311 318 341 350 344 341 342 347 352 348 347 352 351 346 348 352 351 344 340 340 342
168 158 131 122 123 120 112 113 134 151 158 205 306 315 344 4 9 5 347 325 309 279 259 342 351 302 236 247 282 277 260 264 303 335 343 350 352 348 351 359 354 323 311 311 314 320 331 331 310 293 295 300 299 311 330 332 328 329 330 331 331 324 316 311 306 309 324 333 328 327 328 331 340 342 338 340 343 342 341 345 351 353 347 341 338
154 145 127 122 126 120 108 120 184 196 207 281 278 284 330 1 7 360 346 326 304 280 274 314 334 307 261 263 289 296 279 269 291 310 318 328 334 333 337 343 343 336 326 319 311 306 318 327 309 289 290 297 299 311 324 327 325 325 326 327 328 324 315 309 306 308 315 321 319 315 312 317 329 332 328 329 333 334 335 337 341 347 349 343 336
159 152 154 157 161 171 153 87 202 208 227 258 256 273 319 350 356 352 345 327 297 277 283 298 311 303 277 271 280 289 290 288 291 295 300 307 310 312 319 327 332 336 338 339 328 310 306 310 301 287 285 296 305 312 319 324 324 324 326 326 325 323 317 310 305 306 312 316 314 307 300 307 321 322 320 323 326 327 328 331 336 343 349 347 339
164 169 187 197 202 216 232 250 236 221 238 248 240 262 302 329 340 341 339 329 303 280 282 294 299 296 290 284 277 275 282 295 296 289 287 288 287 291 301 311 316 318 325 336 333 317 308 302 297 288 284 293 303 310 317 322 323 325 328 326 325 324 317 307 302 305 313 318 318 307 295 303 318 320 318 322 325 325 325 326 333 339 344 346 342
185 199 210 214 223 233 239 245 244 236 245 257 254 273 294 302 314 324 330 330 319 297 284 283 289 293 295 296 288 277 275 284 291 289 282 276 276 280 287 296 301 299 304 315 317 312 308 303 300 296 292 296 303 308 314 318 321 326 325 319 322 321 309 299 294 299 308 315 319 312 295 303 319 321 319 323 327 327 326 328 333 336 339 342 340
194 216 230 230 234 243 249 253 251 249 259 270 269 277 286 286 294 307 313 315 318 314 296 280 280 287 291 296 298 289 280 282 288 289 284 274 271 275 280 285 288 289 294 303 308 307 308 306 305 303 302 304 306 308 312 315 318 323 318 312 317 311 293 284 284 291 301 308 315 316 298 307 320 320 318 321 324 326 328 330 332 333 335 339 337
178 169 186 227 240 248 256 261 258 256 258 259 261 276 286 285 288 294 297 297 302 312 312 296 282 277 279 286 293 294 293 295 297 297 292 280 273 275 280 280 277 281 291 299 302 303 305 306 307 306 305 307 309 310 312 312 315 318 313 309 310 299 285 282 282 284 292 303 316 323 309 309 317 318 317 319 318 322 325 325 326 327 329 334 335